www.pogodaiklimat.ru

Погода и климат >> Архив погоды >> Тунис >> Nabeul


ПОГОДА в Nabeul

  • Прогноз погоды в Nabeul
  • Монитор погоды в Nabeul
  • Климат города

АРХИВ ПОГОДЫ в Nabeul

Время (UTC), дата Ветер
(напр.,м/с)
 
Видим.   Явления Облачность Т
(С)
Тd
(С)
f
(%)
Тe
(С)
Тes
(С)
Комфортность P
(гПа)
Po
(гПа)
Тmin
(С)
Tmax
(С)
R
(мм)
R24
(мм)
S
(см)
21 15.04 СЗ 10-16
{16}
н/о н/о +15.4 +12.9 85 +13 +13 1011.3 1002.1
00 16.04 СЗ 7-11
{16}
н/о н/о +15.6 +11.8 78 +14 +14 1012.8 1003.6
03 16.04 СЗ 9-15
{22}
н/о н/о +15.0 +10.8 76 +13 +13 1012.6 1003.3
12 16.04 СЗ 5-9
{19}
н/о н/о +23.9 +8.3 37 +24 +24 комфорт 1016.0 1007.0
15 16.04 С 5-7
{12}
н/о н/о +25.2 +8.2 34 +26 +26 жарко 1015.5 1006.5
18 16.04 С 3-4
{12}
н/о н/о +19.7 +9.3 51 +21 +21 комфорт 1017.0 1007.8 +25.4
21 16.04 СЗ 1-2
{4}
н/о н/о +15.0 +10.4 74 +16 +16 1019.6 1010.3
00 17.04 СЗ 3-5
{6}
н/о н/о +14.3 +11.3 82 +14 +14 1019.6 1010.3
03 17.04 СЗ 2-3
{5}
н/о н/о +14.3 +9.3 72 +14 +14 1019.1 1009.8
06 17.04 СЗ 2-4
{11}
н/о н/о +14.3 +12.9 91 +14 +14 1020.9 1011.5 +13.0 +19.4 0.6
09 17.04 СЗ 6-10
{10}
н/о н/о +16.8 +13.9 83 +16 +16 1021.1 1011.8 1
12 17.04 С 7-10
{12}
н/о н/о +20.6 +12.3 59 +22 +22 комфорт 1020.9 1011.7
15 17.04 С 4-7
{10}
н/о н/о +19.7 +13.4 67 +21 +21 комфорт 1020.2 1011.0
18 17.04 штиль 0-4
{10}
н/о н/о +17.1 +14.2 83 +17 +17 1020.7 1011.4 +21.3
21 17.04 СЗ 5-10
{10}
н/о н/о +15.0 +12.7 86 +14 +14 1021.6 1012.3
00 18.04 СЗ 6-11
{13}
н/о н/о +14.7 +12.7 88 +13 +13 1021.6 1012.3
03 18.04 СЗ 7-13
{13}
н/о н/о +13.8 +12.0 89 +11 +11 1020.7 1011.3
06 18.04 СЗ 6-13
{14}
н/о н/о +14.3 +12.2 87 +12 +12 1021.1 1011.7 +13.3 +16.9
09 18.04 СЗ 9-15
{17}
н/о н/о +18.0 +12.7 71 +17 +17 1021.7 1012.5
12 18.04 С 7-11
{17}
н/о н/о +21.3 +12.2 56 +23 +23 комфорт 1021.9 1012.8
15 18.04 С 7-11
{12}
н/о н/о +20.8 +13.0 61 +23 +23 комфорт 1020.9 1011.8
18 18.04 С 5-8
{12}
н/о н/о +16.8 +13.1 79 +16 +16 1022.3 1013.0 +22.1
21 18.04 С 2-4
{7}
н/о н/о +14.8 +13.3 91 +14 +14 1023.4 1014.0
00 19.04 С 3-4
{7}
н/о н/о +13.4 +12.8 96 +12 +12 1023.2 1013.8
03 19.04 СЗ 3-5
{6}
н/о н/о +13.4 +13.2 99 +12 +12 1022.6 1013.2
06 19.04 С 3-4
{6}
н/о н/о +14.0 +13.7 98 +13 +13 1022.8 1013.4 +13.0 +16.7
09 19.04 СВ 3-6
{7}
н/о н/о +20.8 +13.0 61 +24 +24 комфорт 1023.1 1013.9
12 19.04 ЮВ 6-8
{10}
н/о н/о +22.2 +13.0 56 +25 +25 комфорт 1022.4 1013.3
15 19.04 ЮВ 6-8
{10}
н/о н/о +20.5 +13.5 64 +23 +23 комфорт 1021.4 1012.2
18 19.04 В 4-5
{10}
н/о н/о +17.1 +13.4 79 +17 +17 1021.7 1012.4 +22.6
21 19.04 С 3-4
{5}
н/о н/о +15.2 +13.6 90 +14 +14 1022.3 1013.0
00 20.04 СЗ 3-4
{5}
н/о н/о +14.5 +13.5 94 +13 +13 1022.1 1012.7
03 20.04 СЗ 3-5
{6}
н/о н/о +13.5 +13.0 97 +12 +12 1020.6 1011.2
06 20.04 СЗ 4-6
{8}
н/о н/о +14.4 +13.9 97 +13 +13 1020.9 1011.6 +13.5 +17.0
09 20.04 С 4-6
{8}
н/о н/о +19.7 +14.5 72 +22 +22 комфорт 1021.4 1012.2
12 20.04 ЮВ 5-6
{8}
н/о н/о +22.0 +14.6 63 +25 +25 комфорт 1020.8 1011.7
15 20.04 В 2-4
{8}
н/о н/о +20.0 +16.0 78 +23 +23 комфорт 1019.5 1010.4
18 20.04 ЮЗ 1-2
{8}
н/о н/о +18.6 +14.9 79 +20 +20 1019.5 1010.3 +23.7
21 20.04 СЗ 2-2
{3}
н/о н/о +16.3 +14.8 91 +17 +17 1020.7 1011.4
00 21.04 СЗ 2-2
{4}
н/о н/о +14.6 +14.0 96 +14 +14 1020.6 1011.3
03 21.04 СЗ 2-3
{3}
н/о н/о +13.4 +12.9 97 +13 +13 1019.7 1010.3
06 21.04 СЗ 3-4
{4}
н/о н/о +15.6 +15.0 96 +15 +15 1019.9 1010.6 +13.4 +18.4
09 21.04 Ю 4-5
{5}
н/о н/о +23.3 +14.6 58 +27 +27 душно 1020.4 1011.3
12 21.04 ЮВ 4-6
{7}
н/о н/о +23.8 +13.4 52 +26 +26 жарко 1019.6 1010.6
15 21.04 ЮВ 4-6
{7}
н/о н/о +22.4 +14.3 60 +26 +26 жарко 1018.2 1009.1
18 21.04 В 4-6
{7}
н/о н/о +18.3 +15.7 85 +19 +19 1018.6 1009.4 +24.3
21 21.04 В 3-4
{5}
н/о н/о +16.6 +15.5 93 +16 +16 1019.5 1010.2
00 22.04 В 3-3
{5}
н/о н/о +16.3 +15.3 94 +16 +16 1019.0 1009.7
03 22.04 В 2-2
{4}
н/о н/о +15.7 +15.4 98 +16 +16 1018.0 1008.7
06 22.04 В 2-3
{4}
н/о н/о +17.4 +17.2 99 +18 +18 1018.1 1008.9 +15.5 +18.1
09 22.04 ЮВ 6-8
{8}
н/о н/о +20.3 +16.3 78 +23 +23 комфорт 1018.9 1009.8
12 22.04 ЮВ 5-8
{9}
н/о н/о +22.2 +15.5 66 +26 +26 душно 1018.3 1009.2
15 22.04 ЮВ 5-7
{9}
н/о н/о +21.2 +14.4 65 +24 +24 комфорт 1017.3 1008.2
18 22.04 ЮВ 4-5
{9}
н/о н/о +18.3 +14.4 78 +19 +19 1018.0 1008.8 +22.3

 

Местоположение метеостанции Nabeul (Тунис): широта 36.47 долгота 10.70 высота над уровнем моря 78 м.

В архиве по умолчанию представлена погода в Nabeul за последнюю неделю. Архивные данные за месяц целиком и за предыдущие месяцы, начиная с января 2011 года, Вы можете получить, выбрав интересующий диапазон дат из раскрывающегося списка и нажав кнопку "Ввод!".


*Определитесь, кто Вы:
робот инопланетянин человек

Внимание! Время в таблицах - всемирное. Для получения местного времени необходимо прибавить поправку, которая в Nabeul равна 1 ч.

Смотрите также архив погоды в соседних городах и на ближайших метеорологических станциях:

Погода в Enfidha Hammamet Airport (Тунис) (51 км)
Погода в Kelibia (Тунис) (54 км)
Погода в Zaghouan Magrane (Тунис) (56 км)
Погода в Tunis (Тунис) (58 км)
Погода в Monastir (Тунис) (89 км)
Погода в Kairouan (Тунис) (104 км)
Погода в Mahdia (Тунис) (113 км)
Погода в Bizerte (Тунис) (118 км)
Погода в Pantelleria (Италия) (120 км)
Погода в Siliana (Тунис) (127 км)

Пояснения к столбцам:

Ветер - указаны скорость ветра в м/с - средняя за 10 мин, порывы в срок и между сроками (в фигурных скобках) и направление, откуда дует ветер: С - северный, СВ - северо-восточный, В - восточный, ЮВ - юго-восточный, Ю - южный, ЮЗ - юго-западный, З - западный, СЗ - северо-западный.
Видимость - горизонтальная дальность видимости в метрах или километрах. При видимости от 1 до 10 км при отсутствии осадков обычно наблюдается дымка, при ухудшении видимости до 1 км и менее - туман. В сухую погоду видимость может ухудшаться дымом, пылью или мглою.
Явления - указаны атмосферные явления, наблюдавшиеся в срок или в последний час перед сроком; фигурными скобками обозначены явления, наблюдавшиеся между сроками (за 1-3 часа до срока); квадратными скобками обозначены град или гололедные отложения с указанием их диаметра в мм.
Облачность - указаны через наклонную черту общая и нижняя облачность в баллах и высота нижней границы облаков в метрах; квадратными скобками обозначены формы облаков: Ci - перистые, Cs - перисто-слоистые, Cc - перисто-кучевые, Ac - высококучевые, As - высокослоистые, Sc - слоисто-кучевые, Ns - слоисто-дождевые, Cu - кучевые, Cb - кучево-дождевые. Подробнее классификацию облаков см. в Атласе облаков (PDF).
T - Температура воздуха - температура, измеренная на высоте 2 м над землей.
Td - Температура точки росы - температура, при понижении до которой содержащийся в воздухе водяной пар достигнет насыщения.
f - Относительная влажность воздуха - влажноcть воздуха, измеренная на высоте 2 м над землей.
Te - Эффективная температура - температура, которую ощущает одетый по сезону человек в тени. Характеристика душности погоды. При расчете учитывается влияние влажности воздуха и скорости ветра на теплоощущения человека.
Tes - Эффективная температура на солнце - температура, которую ощущает человек, с поправкой на солнечный нагрев. Характеристика знойности погоды. Зависит от высоты солнца над горизонтом, облачности и скорости ветра. Ночью, в пасмурную погоду, а также при ветре 12 м/с и более поправка равна нулю.
P - Атмосферное давление - приведенное к уровню моря атмосферное давление.
Po - Атмосферное давление - измеренное на уровне метеостанции атмосферное давление.
Tmin - Минимальная температура - минимум температуры воздуха на высоте 2 м над землей.
Tmax - Максимальная температура - максимум температуры воздуха на высоте 2 м над землей.
R - Количество осадков - Количество выпавших осадков за период времени, мм. При наведении курсора мыши на число - период времени, за который выпало указанное количество осадков.
R24 - Количество осадков - Количество выпавших осадков за 24 часа, мм.
S - Снежный покров - Высота снежного покрова, см. При наведении курсора мыши на число - состояние снежного покрова и степень покрытия местности в баллах.